Flag for Germany Weather past 2 weeks in Itzehoe, Schleswig-Holstein, Germany

37 °F

Passing clouds.

Feels Like: 32 °F
Forecast: 38 / 42 °F
Wind: 7 mph from West

Location: Hohn

Current Time: Nov 26, 2015 at 1:50:32 AM

Latest Report: Nov 26, 2015 at 12:20 AM

Visibility: N/A

Pressure: 29.68 "Hg

Humidity: 93%

Dew point: 36 °F

Location of ItzehoeLocation

Historic Weather in Itzehoe — Graph


Itzehoe temperature yesterday

Maximum temperature yesterday: 45 °F (at 1:20 PM)
Minimum temperature yesterday: 36 °F (at 12:20 AM)
Average temperature yesterday: 39 °F

Past Weeks' High & Low Weather Summary

High57 °F (Nov 11, 12:20 AM)100% (Nov 11, 9:20 AM)30.18 "Hg (Nov 11, 9:20 AM)
Low27 °F (Nov 23, 8:20 AM)63% (Nov 13, 2:20 PM)29.24 "Hg (Nov 18, 4:20 AM)
Average46 °F88%29.72 "Hg
* Reported Nov 11 12:20 AM — Nov 26 12:20 AM, Itzehoe, Weather by CustomWeather, © 2015

Note: Actual official high and low records may vary slightly from our data, if they occured in-between our weather recording intervals... More about our weather records


Itzehoe weather history for previous 24 hours

Time TempWeatherWind HumidityBarometerVisibility
12:20 AM
Thu, Nov 26
37 °FPassing clouds.7 mph93%29.68 "HgN/A
11:20 PM
Wed, Nov 25
37 °FPartly cloudy.6 mph93%29.65 "HgN/A
10:20 PM37 °FPassing clouds.8 mph93%29.65 "HgN/A
9:20 PM37 °FPassing clouds.7 mph93%29.62 "HgN/A
8:20 PM39 °FPassing clouds.6 mph93%29.62 "HgN/A
7:20 PM37 °FPassing clouds.3 mph93%29.59 "HgN/A
6:20 PM39 °FPassing clouds.3 mph93%29.59 "HgN/A
5:20 PM39 °FPassing clouds.5 mph93%29.56 "HgN/A
4:20 PM39 °FPassing clouds.5 mph100%29.56 "HgN/A
3:20 PM43 °FScattered clouds.5 mph93%29.56 "HgN/A
2:20 PM45 °FLight rain. Broken clouds.7 mph87%29.53 "Hg5 mi
1:20 PM45 °FBroken clouds.8 mph93%29.53 "Hg4 mi
12:20 PM43 °FScattered clouds.9 mph93%29.53 "Hg4 mi
11:46 AM43 °FFog.8 mph100%29.53 "Hg3 mi
11:20 AM41 °FFog.8 mph100%29.56 "Hg1 mi
10:50 AM41 °FLight rain. Fog.8 mph93%29.56 "Hg1 mi
10:20 AM39 °FFog.7 mph100%29.56 "Hg1 mi
9:59 AM39 °FFog.8 mph100%29.56 "Hg1 mi
9:20 AM39 °FFog.8 mph100%29.56 "Hg0 mi
8:20 AM39 °FFog.8 mph93%29.56 "Hg1 mi
7:20 AM37 °FDrizzle. Fog.8 mph100%29.56 "Hg1 mi
6:45 AM37 °FFog.9 mph100%29.56 "Hg1 mi
6:20 AM37 °FFog.8 mph100%29.56 "Hg1 mi
6:02 AM37 °FFog.7 mph100%29.56 "Hg1 mi
5:20 AM37 °FFog.8 mph100%29.56 "Hg1 mi
4:20 AM37 °FFog.8 mph93%29.56 "Hg3 mi
3:20 AM37 °FPassing clouds.9 mph93%29.59 "Hg5 mi
2:20 AM36 °FPassing clouds.10 mph100%29.59 "Hg5 mi
1:20 AM36 °FPassing clouds.10 mph93%29.62 "Hg5 mi
Weather by CustomWeather, © 2015

See weather overviewHow to use our weather pages